CDT,Max TemperatureF,Mean TemperatureF,Min TemperatureF,Max Dew PointF,MeanDew PointF,Min DewpointF,Max Humidity, Mean Humidity, Min Humidity, Max Sea Level PressureIn, Mean Sea Level PressureIn, Min Sea Level PressureIn, Max VisibilityMiles, Mean VisibilityMiles, Min VisibilityMiles, Max Wind SpeedMPH, Mean Wind SpeedMPH, Max Gust SpeedMPH,PrecipitationIn, CloudCover, Events, WindDirDegrees
2012-4-1,78,60,42,57,49,43,100,82,44,29.68,29.59,29.46,10,4,0,23,11,28,0.00,5,Fog,101
2012-4-2,80,65,50,59,53,48,100,77,44,29.64,29.59,29.52,10,6,1,22,18,30,0.00,7,,125
2012-4-3,62,54,46,45,36,25,87,57,25,30.08,29.98,29.75,10,10,10,28,21,37,0.00,6,,5
2012-4-4,62,50,37,30,26,21,70,41,20,30.06,29.98,29.90,10,10,10,18,9,24,0.00,1,,51
2012-4-5,62,48,33,30,28,23,81,47,27,30.10,30.02,29.94,10,10,10,14,8,26,0.00,1,,89
2012-4-6,62,48,35,28,24,18,70,43,19,30.20,30.12,29.99,10,10,10,22,11,31,0.00,1,,138
2012-4-7,55,50,46,43,32,18,87,50,26,30.17,30.05,29.98,10,10,7,36,17,45,0.00,5,Rain,223
2012-4-8,62,48,33,25,18,5,60,33,10,30.27,30.19,30.10,10,10,10,26,11,37,0.00,1,,260
2012-4-9,51,40,28,23,18,14,69,44,24,30.18,30.15,30.13,10,10,10,30,12,39,0.00,0,,301
2012-4-10,44,32,21,18,15,12,80,51,29,30.29,30.23,30.18,10,10,10,23,11,30,0.00,0,,310
2012-4-11,51,33,15,18,13,9,79,45,21,30.38,30.30,30.18,10,10,10,10,6,,0.00,0,,14
2012-4-12,57,44,30,37,21,12,71,40,21,30.18,30.07,29.92,10,10,7,17,7,23,0.00,4,Rain,153
2012-4-13,62,53,44,52,44,30,100,82,47,29.92,29.74,29.61,10,8,2,28,19,37,0.32,6,Rain-Thunderstorm,165
2012-4-14,69,56,44,55,48,37,100,79,31,29.81,29.72,29.50,10,9,5,24,9,32,0.03,2,Rain-Thunderstorm,162
2012-4-15,71,58,42,61,53,43,100,86,49,29.51,29.32,29.20,10,8,3,28,13,33,0.55,7,Rain-Thunderstorm,141
2012-4-16,44,38,32,41,34,30,100,87,66,30.20,29.88,29.32,10,8,2,39,25,47,0.02,8,Rain-Snow,299
2012-4-17,62,47,32,48,39,30,100,73,45,30.25,30.13,29.87,10,10,10,22,6,30,0.00,4,Rain-Thunderstorm,160
2012-4-18,57,50,42,52,45,39,93,74,58,29.99,29.94,29.82,10,10,10,28,15,36,0.00,3,Rain-Thunderstorm,291
2012-4-19,44,40,35,39,37,34,100,92,81,29.98,29.94,29.89,10,10,5,20,12,29,0.48,6,Rain,32
2012-4-20,53,42,30,36,31,28,100,66,41,30.11,30.04,29.96,10,10,10,12,8,18,0.00,2,,342
2012-4-21,57,49,41,46,40,36,100,78,62,30.00,29.91,29.78,10,10,7,22,10,32,0.16,6,Rain-Thunderstorm,184
2012-4-22,48,42,35,41,38,36,100,90,71,30.25,30.16,29.96,10,8,1,28,18,33,0.00,7,Rain-Snow,325
2012-4-23,66,49,32,41,34,28,100,62,24,30.23,30.06,29.83,10,9,1,16,5,21,0.00,0,,247
2012-4-24,78,60,42,48,42,36,81,52,24,29.82,29.65,29.55,10,10,7,12,5,9,0.00,0,,132
2012-4-25,80,66,53,55,48,43,88,56,28,29.80,29.58,29.48,10,10,10,26,12,36,0.00,2,Rain,318
2012-4-26,57,50,42,45,32,19,93,51,25,30.11,30.04,29.81,10,10,10,17,14,24,0.00,0,,23
2012-4-27,55,47,39,36,27,19,87,47,26,30.12,29.99,29.85,10,10,7,31,17,40,0.03,5,Rain-Thunderstorm,104
2012-4-28,44,40,35,43,39,36,100,95,87,30.15,30.00,29.87,10,7,2,22,15,31,0.28,8,Rain-Snow,105
2012-4-29,48,45,42,45,43,43,100,91,82,30.16,30.10,30.00,10,6,1,12,9,16,0.00,8,Rain,118
2012-4-30,68,56,44,52,45,39,100,72,35,29.99,29.90,29.78,10,8,4,16,6,24,0.00,3,,227